TimeEST,TemperatureF,Dew PointF,Humidity,Sea Level PressureIn,VisibilityMPH,Wind Direction,Wind SpeedMPH,Gust SpeedMPH,PrecipitationIn,Events,Conditions,WindDirDegrees,DateUTC
12:53 AM,28.9,18.0,64,30.02,10.0,SSW,3.5,-,N/A,,Overcast,210,2012-11-25 05:53:00
1:20 AM,28.4,17.6,64,29.99,10.0,SW,5.8,-,N/A,,Overcast,220,2012-11-25 06:20:00
1:33 AM,28.4,19.4,69,29.98,10.0,SW,5.8,-,N/A,,Overcast,220,2012-11-25 06:33:00
1:53 AM,30.0,19.0,64,30.00,10.0,SSW,6.9,-,N/A,,Overcast,210,2012-11-25 06:53:00
2:19 AM,30.2,19.4,64,29.95,10.0,SSW,5.8,-,N/A,,Overcast,210,2012-11-25 07:19:00
2:53 AM,30.0,19.9,66,30.00,10.0,SW,9.2,-,N/A,,Overcast,220,2012-11-25 07:53:00
3:28 AM,28.4,21.2,74,29.96,2.0,WSW,11.5,-,0.00,Snow,Light Snow,240,2012-11-25 08:28:00
3:49 AM,28.4,21.2,74,29.94,1.8,SW,8.1,-,0.00,Snow,Light Snow,220,2012-11-25 08:49:00
3:53 AM,28.0,23.0,81,29.97,1.5,SSW,8.1,-,0.00,Snow,Light Snow,210,2012-11-25 08:53:00
4:26 AM,28.4,24.8,86,29.91,1.0,SSW,6.9,-,0.02,Snow,Light Snow,200,2012-11-25 09:26:00
4:39 AM,28.4,24.8,86,29.92,1.2,SW,6.9,-,0.03,Snow,Light Snow,230,2012-11-25 09:39:00
4:53 AM,27.0,24.1,89,29.95,1.8,SW,8.1,-,0.03,Snow,Light Snow,230,2012-11-25 09:53:00
5:00 AM,26.6,24.8,93,29.92,3.0,SW,8.1,-,0.00,Snow,Light Snow,220,2012-11-25 10:00:00
5:18 AM,26.6,24.8,93,29.91,2.0,SSW,6.9,-,0.00,Snow,Light Snow,210,2012-11-25 10:18:00
5:22 AM,26.6,23.0,86,29.91,3.0,SSW,8.1,-,0.00,Snow,Light Snow,210,2012-11-25 10:22:00
5:53 AM,28.0,21.0,75,29.92,10.0,SSW,10.4,-,0.00,,Overcast,200,2012-11-25 10:53:00
6:24 AM,26.6,21.2,80,29.88,2.5,SSW,9.2,-,0.00,Snow,Light Snow,210,2012-11-25 11:24:00
6:31 AM,28.4,21.2,74,29.87,3.0,SSW,8.1,-,0.00,Snow,Light Snow,200,2012-11-25 11:31:00
6:53 AM,27.0,21.9,81,29.90,2.0,South,9.2,-,0.00,Snow,Light Snow,190,2012-11-25 11:53:00
7:00 AM,26.6,21.2,80,29.87,1.2,SSW,8.1,-,0.00,Snow,Light Snow,200,2012-11-25 12:00:00
7:26 AM,26.6,23.0,86,29.87,1.0,South,8.1,-,0.02,Snow,Light Snow,190,2012-11-25 12:26:00
7:33 AM,26.6,23.0,86,29.87,1.5,South,8.1,-,0.02,Snow,Light Snow,190,2012-11-25 12:33:00
7:49 AM,26.6,23.0,86,29.85,3.0,South,8.1,-,0.02,Snow,Light Snow,190,2012-11-25 12:49:00
7:53 AM,27.0,23.0,85,29.89,4.0,South,6.9,-,0.02,Snow,Light Snow,190,2012-11-25 12:53:00
8:53 AM,28.0,21.9,78,29.89,8.0,SSW,6.9,-,0.00,,Overcast,210,2012-11-25 13:53:00
9:53 AM,28.9,23.0,78,29.89,6.0,SSW,11.5,-,N/A,,Haze,210,2012-11-25 14:53:00
10:53 AM,28.9,23.0,78,29.88,9.0,SW,8.1,-,N/A,,Overcast,220,2012-11-25 15:53:00
11:53 AM,30.9,23.0,72,29.86,9.0,WSW,10.4,-,N/A,,Overcast,240,2012-11-25 16:53:00
12:53 PM,32.0,24.1,73,29.85,9.0,WSW,11.5,-,N/A,,Overcast,240,2012-11-25 17:53:00
1:53 PM,33.1,25.0,72,29.84,9.0,WSW,9.2,-,N/A,,Overcast,250,2012-11-25 18:53:00
2:53 PM,34.0,26.1,73,29.86,8.0,West,9.2,-,N/A,,Overcast,260,2012-11-25 19:53:00
3:29 PM,33.8,26.6,75,29.83,8.0,WSW,8.1,-,N/A,,Overcast,240,2012-11-25 20:29:00
3:53 PM,34.0,26.1,73,29.87,8.0,WSW,9.2,-,N/A,,Overcast,250,2012-11-25 20:53:00
4:53 PM,34.0,27.0,75,29.88,9.0,SW,5.8,-,N/A,,Overcast,230,2012-11-25 21:53:00
5:53 PM,34.0,27.0,75,29.90,9.0,SW,4.6,-,N/A,,Overcast,230,2012-11-25 22:53:00
6:53 PM,34.0,27.0,75,29.92,9.0,WSW,5.8,-,N/A,,Overcast,250,2012-11-25 23:53:00
7:36 PM,33.8,28.4,81,29.91,9.0,WNW,6.9,-,N/A,,Overcast,290,2012-11-26 00:36:00
7:50 PM,35.6,26.6,70,29.91,9.0,WNW,8.1,-,N/A,,Overcast,290,2012-11-26 00:50:00
7:53 PM,34.0,28.0,79,29.94,9.0,West,6.9,-,N/A,,Overcast,280,2012-11-26 00:53:00
8:53 PM,34.0,27.0,75,29.96,9.0,West,8.1,-,N/A,,Overcast,280,2012-11-26 01:53:00
9:53 PM,33.1,23.0,66,29.97,10.0,WNW,10.4,-,N/A,,Mostly Cloudy,300,2012-11-26 02:53:00
10:53 PM,30.9,23.0,72,30.00,10.0,West,8.1,-,N/A,,Mostly Cloudy,280,2012-11-26 03:53:00
11:53 PM,30.9,21.9,69,30.01,10.0,West,6.9,-,N/A,,Clear,260,2012-11-26 04:53:00